contact:dominique.lefevre@mio.osupytheas.fr, maurice.libes@osupytheas.fr, didier.mallarino@osupytheas.fr
Project:EMSO http://www.emso-fr.org/EMSO-France
Depth: 2436.0 m
Title:EMSO Ligure Ouest : Data MII capteur MICROCAT
DateTime_Computer,Latitude,Longitude,Temperature,Conductivity,Pressure,DateTime_Instrument
DateTime_Computer,Latitude,Longitude,degC,S m-1,dbar,DateTime_Instrument
2021-07-26T00:03:02Z,42.805,6.029,13.2990,4.60001,2470.53,2021-7-26T02:04:19Z
2021-07-26T00:06:05Z,42.805,6.029,13.2989,4.60003,2470.507,2021-7-26T02:07:22Z
2021-07-26T00:09:08Z,42.805,6.029,13.2993,4.60001,2470.507,2021-7-26T02:10:25Z
2021-07-26T00:12:11Z,42.805,6.029,13.2991,4.60004,2470.52,2021-7-26T02:13:28Z
2021-07-26T00:15:14Z,42.805,6.029,13.2991,4.60001,2470.497,2021-7-26T02:16:31Z
2021-07-26T00:18:18Z,42.805,6.029,13.2994,4.60001,2470.483,2021-7-26T02:19:34Z
2021-07-26T00:21:21Z,42.805,6.029,13.2994,4.60002,2470.483,2021-7-26T02:22:38Z
2021-07-26T00:24:24Z,42.805,6.029,13.2991,4.60003,2470.52,2021-7-26T02:25:41Z
2021-07-26T00:27:27Z,42.805,6.029,13.2991,4.60001,2470.497,2021-7-26T02:28:44Z
2021-07-26T00:30:30Z,42.805,6.029,13.2991,4.60001,2470.507,2021-7-26T02:31:47Z
2021-07-26T00:33:33Z,42.805,6.029,13.2995,4.60002,2470.507,2021-7-26T02:34:50Z
2021-07-26T00:36:36Z,42.805,6.029,13.2988,4.60001,2470.474,2021-7-26T02:37:53Z
2021-07-26T00:39:39Z,42.805,6.029,13.2992,4.60000,2470.483,2021-7-26T02:40:56Z
2021-07-26T00:42:43Z,42.805,6.029,13.2994,4.60001,2470.544,2021-7-26T02:43:59Z
2021-07-26T00:45:46Z,42.805,6.029,13.2990,4.59999,2470.437,2021-7-26T02:47:03Z
2021-07-26T00:48:49Z,42.805,6.029,13.2991,4.59999,2470.46,2021-7-26T02:50:06Z
2021-07-26T00:51:52Z,42.805,6.029,13.2991,4.60001,2470.483,2021-7-26T02:53:09Z
2021-07-26T00:54:55Z,42.805,6.029,13.2991,4.60001,2470.497,2021-7-26T02:56:12Z
2021-07-26T00:57:58Z,42.805,6.029,13.2991,4.60001,2470.497,2021-7-26T02:59:15Z
2021-07-26T01:01:01Z,42.805,6.029,13.2991,4.60001,2470.497,2021-7-26T03:02:18Z
2021-07-26T01:04:04Z,42.805,6.029,13.2991,4.60000,2470.46,2021-7-26T03:05:21Z
2021-07-26T01:07:07Z,42.805,6.029,13.2992,4.60000,2470.413,2021-7-26T03:08:24Z
2021-07-26T01:10:11Z,42.805,6.029,13.2992,4.60001,2470.474,2021-7-26T03:11:27Z
2021-07-26T01:13:14Z,42.805,6.029,13.2992,4.60001,2470.483,2021-7-26T03:14:31Z
2021-07-26T01:16:17Z,42.805,6.029,13.2992,4.60001,2470.46,2021-7-26T03:17:34Z
2021-07-26T01:19:20Z,42.805,6.029,13.2990,4.60001,2470.46,2021-7-26T03:20:37Z
2021-07-26T01:22:23Z,42.805,6.029,13.2991,4.60002,2470.474,2021-7-26T03:23:40Z
2021-07-26T01:25:26Z,42.805,6.029,13.2990,4.60000,2470.437,2021-7-26T03:26:43Z
2021-07-26T01:28:29Z,42.805,6.029,13.2991,4.60000,2470.497,2021-7-26T03:29:46Z
2021-07-26T01:31:33Z,42.805,6.029,13.2992,4.60001,2470.437,2021-7-26T03:32:49Z
2021-07-26T01:34:36Z,42.805,6.029,13.2991,4.60001,2470.437,2021-7-26T03:35:53Z
2021-07-26T01:37:39Z,42.805,6.029,13.2991,4.60001,2470.437,2021-7-26T03:38:56Z
2021-07-26T01:40:42Z,42.805,6.029,13.2993,4.60002,2470.45,2021-7-26T03:41:59Z
2021-07-26T01:43:45Z,42.805,6.029,13.2989,4.60003,2470.437,2021-7-26T03:45:02Z
2021-07-26T01:46:48Z,42.805,6.029,13.2990,4.60000,2470.413,2021-7-26T03:48:05Z
2021-07-26T01:49:51Z,42.805,6.029,13.2991,4.60000,2470.437,2021-7-26T03:51:08Z
2021-07-26T01:52:54Z,42.805,6.029,13.2994,4.60001,2470.45,2021-7-26T03:54:11Z
2021-07-26T01:55:57Z,42.805,6.029,13.2992,4.60001,2470.413,2021-7-26T03:57:14Z
2021-07-26T01:59:01Z,42.805,6.029,13.2993,4.59999,2470.413,2021-7-26T04:00:17Z
2021-07-26T02:02:04Z,42.805,6.029,13.2990,4.59999,2470.376,2021-7-26T04:03:21Z
2021-07-26T02:05:07Z,42.805,6.029,13.2993,4.60000,2470.437,2021-7-26T04:06:24Z
2021-07-26T02:08:10Z,42.805,6.029,13.2991,4.60000,2470.413,2021-7-26T04:09:27Z
2021-07-26T02:11:13Z,42.805,6.029,13.2991,4.60001,2470.413,2021-7-26T04:12:30Z
2021-07-26T02:14:16Z,42.805,6.029,13.2993,4.60006,2470.427,2021-7-26T04:15:33Z
2021-07-26T02:17:19Z,42.805,6.029,13.2991,4.60001,2470.413,2021-7-26T04:18:36Z
2021-07-26T02:20:22Z,42.805,6.029,13.2993,4.59999,2470.427,2021-7-26T04:21:39Z
2021-07-26T02:23:26Z,42.805,6.029,13.2993,4.60000,2470.413,2021-7-26T04:24:42Z
2021-07-26T02:26:29Z,42.805,6.029,13.2996,4.60000,2470.39,2021-7-26T04:27:46Z
2021-07-26T02:29:32Z,42.805,6.029,13.2991,4.59999,2470.427,2021-7-26T04:30:49Z
2021-07-26T02:32:35Z,42.805,6.029,13.2991,4.60000,2470.39,2021-7-26T04:33:52Z
2021-07-26T02:35:38Z,42.805,6.029,13.2990,4.60000,2470.413,2021-7-26T04:36:55Z
2021-07-26T02:38:41Z,42.805,6.029,13.2994,4.59999,2470.413,2021-7-26T04:39:58Z
2021-07-26T02:41:44Z,42.805,6.029,13.2993,4.59999,2470.437,2021-7-26T04:43:01Z
2021-07-26T02:44:47Z,42.805,6.029,13.2991,4.60002,2470.366,2021-7-26T04:46:04Z
2021-07-26T02:47:51Z,42.805,6.029,13.2991,4.59999,2470.413,2021-7-26T04:49:07Z
2021-07-26T02:50:54Z,42.805,6.029,13.2996,4.59999,2470.413,2021-7-26T04:52:11Z
2021-07-26T02:53:57Z,42.805,6.029,13.2992,4.60000,2470.366,2021-7-26T04:55:14Z
2021-07-26T02:57:00Z,42.805,6.029,13.2990,4.60001,2470.427,2021-7-26T04:58:17Z
2021-07-26T03:00:03Z,42.805,6.029,13.2990,4.60003,2470.413,2021-7-26T05:01:20Z
2021-07-26T03:03:06Z,42.805,6.029,13.2992,4.60000,2470.39,2021-7-26T05:04:23Z
2021-07-26T03:06:09Z,42.805,6.029,13.2989,4.60000,2470.39,2021-7-26T05:07:26Z
2021-07-26T03:09:12Z,42.805,6.029,13.2989,4.60000,2470.38,2021-7-26T05:10:29Z
2021-07-26T03:12:16Z,42.805,6.029,13.2993,4.59999,2470.366,2021-7-26T05:13:32Z
2021-07-26T03:15:19Z,42.805,6.029,13.2991,4.59999,2470.343,2021-7-26T05:16:36Z
2021-07-26T03:18:22Z,42.805,6.029,13.2990,4.60000,2470.366,2021-7-26T05:19:39Z
2021-07-26T03:21:25Z,42.805,6.029,13.2991,4.60006,2470.366,2021-7-26T05:22:42Z
2021-07-26T03:24:28Z,42.805,6.029,13.2990,4.59999,2470.404,2021-7-26T05:25:45Z
2021-07-26T03:27:31Z,42.805,6.029,13.2991,4.60001,2470.343,2021-7-26T05:28:48Z
2021-07-26T03:30:34Z,42.805,6.029,13.2987,4.59999,2470.366,2021-7-26T05:31:51Z
2021-07-26T03:33:37Z,42.805,6.029,13.2991,4.59999,2470.357,2021-7-26T05:34:54Z
2021-07-26T03:36:41Z,42.805,6.029,13.2991,4.60001,2470.366,2021-7-26T05:37:57Z
2021-07-26T03:39:44Z,42.805,6.029,13.2990,4.59999,2470.39,2021-7-26T05:41:01Z
2021-07-26T03:42:47Z,42.805,6.029,13.2989,4.59999,2470.353,2021-7-26T05:44:04Z
2021-07-26T03:45:50Z,42.805,6.029,13.2990,4.59999,2470.38,2021-7-26T05:47:07Z
2021-07-26T03:48:53Z,42.805,6.029,13.2991,4.60000,2470.38,2021-7-26T05:50:10Z
2021-07-26T03:51:56Z,42.805,6.029,13.2991,4.59999,2470.38,2021-7-26T05:53:13Z
2021-07-26T03:54:59Z,42.805,6.029,13.2988,4.60000,2470.39,2021-7-26T05:56:16Z
2021-07-26T03:58:02Z,42.805,6.029,13.2991,4.59999,2470.366,2021-7-26T05:59:19Z
2021-07-26T04:01:06Z,42.805,6.029,13.2989,4.60001,2470.38,2021-7-26T06:02:22Z
2021-07-26T04:04:09Z,42.805,6.029,13.2990,4.60001,2470.343,2021-7-26T06:05:26Z
2021-07-26T04:07:12Z,42.805,6.029,13.2986,4.59999,2470.366,2021-7-26T06:08:29Z
2021-07-26T04:10:15Z,42.805,6.029,13.2992,4.59999,2470.366,2021-7-26T06:11:32Z
2021-07-26T04:13:18Z,42.805,6.029,13.2986,4.60000,2470.366,2021-7-26T06:14:35Z
2021-07-26T04:16:21Z,42.805,6.029,13.2993,4.60000,2470.357,2021-7-26T06:17:38Z
2021-07-26T04:19:24Z,42.805,6.029,13.2991,4.59999,2470.38,2021-7-26T06:20:41Z
2021-07-26T04:22:27Z,42.805,6.029,13.2991,4.59999,2470.404,2021-7-26T06:23:44Z
2021-07-26T04:25:30Z,42.805,6.029,13.2993,4.59998,2470.404,2021-7-26T06:26:47Z
2021-07-26T04:28:34Z,42.805,6.029,13.2992,4.60002,2470.38,2021-7-26T06:29:50Z
2021-07-26T04:31:37Z,42.805,6.029,13.2989,4.60000,2470.39,2021-7-26T06:32:54Z
2021-07-26T04:34:40Z,42.805,6.029,13.2990,4.59999,2470.366,2021-7-26T06:35:57Z
2021-07-26T04:37:43Z,42.805,6.029,13.2990,4.59999,2470.38,2021-7-26T06:39:00Z
2021-07-26T04:40:46Z,42.805,6.029,13.2991,4.59999,2470.39,2021-7-26T06:42:03Z
2021-07-26T04:43:49Z,42.805,6.029,13.2991,4.59999,2470.39,2021-7-26T06:45:06Z
2021-07-26T04:46:52Z,42.805,6.029,13.2990,4.59998,2470.39,2021-7-26T06:48:09Z
2021-07-26T04:49:55Z,42.805,6.029,13.2988,4.59999,2470.366,2021-7-26T06:51:12Z
2021-07-26T04:52:59Z,42.805,6.029,13.2989,4.60003,2470.39,2021-7-26T06:54:15Z
2021-07-26T04:56:02Z,42.805,6.029,13.2992,4.59999,2470.39,2021-7-26T06:57:19Z
2021-07-26T04:59:05Z,42.805,6.029,13.2990,4.60000,2470.427,2021-7-26T07:00:22Z
2021-07-26T05:02:08Z,42.805,6.029,13.2994,4.59999,2470.39,2021-7-26T07:03:25Z
2021-07-26T05:05:11Z,42.805,6.029,13.2990,4.59999,2470.413,2021-7-26T07:06:28Z
2021-07-26T05:08:14Z,42.805,6.029,13.2990,4.59999,2470.427,2021-7-26T07:09:31Z
2021-07-26T05:11:17Z,42.805,6.029,13.2989,4.60000,2470.404,2021-7-26T07:12:34Z
2021-07-26T05:14:20Z,42.805,6.029,13.2988,4.59999,2470.39,2021-7-26T07:15:37Z
2021-07-26T05:17:24Z,42.805,6.029,13.2985,4.59999,2470.427,2021-7-26T07:18:40Z
2021-07-26T05:20:27Z,42.805,6.029,13.2987,4.59999,2470.413,2021-7-26T07:21:44Z
2021-07-26T05:23:30Z,42.805,6.029,13.2987,4.60000,2470.39,2021-7-26T07:24:47Z
2021-07-26T05:26:33Z,42.805,6.029,13.2988,4.60002,2470.413,2021-7-26T07:27:50Z
2021-07-26T05:29:36Z,42.805,6.029,13.2990,4.59999,2470.39,2021-7-26T07:30:53Z
2021-07-26T05:32:39Z,42.805,6.029,13.2993,4.59999,2470.413,2021-7-26T07:33:56Z
2021-07-26T05:35:42Z,42.805,6.029,13.2992,4.60000,2470.427,2021-7-26T07:36:59Z
2021-07-26T05:38:45Z,42.805,6.029,13.2991,4.60001,2470.413,2021-7-26T07:40:02Z
2021-07-26T05:41:49Z,42.805,6.029,13.2990,4.60000,2470.437,2021-7-26T07:43:05Z
2021-07-26T05:44:52Z,42.805,6.029,13.2989,4.59999,2470.413,2021-7-26T07:46:09Z
2021-07-26T05:47:55Z,42.805,6.029,13.2992,4.60000,2470.437,2021-7-26T07:49:12Z
2021-07-26T05:50:58Z,42.805,6.029,13.2988,4.60000,2470.404,2021-7-26T07:52:15Z
2021-07-26T05:54:01Z,42.805,6.029,13.2990,4.60001,2470.437,2021-7-26T07:55:18Z
2021-07-26T05:57:04Z,42.805,6.029,13.2990,4.60000,2470.413,2021-7-26T07:58:21Z
2021-07-26T06:00:07Z,42.805,6.029,13.2989,4.60009,2470.437,2021-7-26T08:01:24Z
2021-07-26T06:03:10Z,42.805,6.029,13.2991,4.59999,2470.413,2021-7-26T08:04:27Z
2021-07-26T06:06:14Z,42.805,6.029,13.2991,4.60001,2470.45,2021-7-26T08:07:30Z
2021-07-26T06:09:17Z,42.805,6.029,13.2990,4.60002,2470.413,2021-7-26T08:10:34Z
2021-07-26T06:12:20Z,42.805,6.029,13.2990,4.59999,2470.474,2021-7-26T08:13:37Z
2021-07-26T06:15:23Z,42.805,6.029,13.2990,4.60000,2470.474,2021-7-26T08:16:40Z
2021-07-26T06:18:26Z,42.805,6.029,13.2990,4.60000,2470.437,2021-7-26T08:19:43Z
2021-07-26T06:21:29Z,42.805,6.029,13.2993,4.60001,2470.45,2021-7-26T08:22:46Z
2021-07-26T06:24:32Z,42.805,6.029,13.2992,4.59999,2470.437,2021-7-26T08:25:49Z
2021-07-26T06:27:35Z,42.805,6.029,13.2991,4.59999,2470.45,2021-7-26T08:28:52Z
2021-07-26T06:30:39Z,42.805,6.029,13.2994,4.60000,2470.437,2021-7-26T08:31:55Z
2021-07-26T06:33:42Z,42.805,6.029,13.2990,4.60000,2470.483,2021-7-26T08:34:59Z
2021-07-26T06:36:45Z,42.805,6.029,13.2993,4.59999,2470.45,2021-7-26T08:38:02Z
2021-07-26T06:39:48Z,42.805,6.029,13.2992,4.59999,2470.423,2021-7-26T08:41:05Z
2021-07-26T06:42:51Z,42.805,6.029,13.2992,4.60001,2470.483,2021-7-26T08:44:08Z
2021-07-26T06:45:54Z,42.805,6.029,13.2993,4.59999,2470.497,2021-7-26T08:47:11Z
2021-07-26T06:48:57Z,42.805,6.029,13.2994,4.60001,2470.483,2021-7-26T08:50:14Z
2021-07-26T06:52:00Z,42.805,6.029,13.2992,4.60001,2470.46,2021-7-26T08:53:17Z
2021-07-26T06:55:04Z,42.805,6.029,13.2991,4.60000,2470.46,2021-7-26T08:56:20Z
2021-07-26T06:58:07Z,42.805,6.029,13.2990,4.59999,2470.437,2021-7-26T08:59:24Z
2021-07-26T07:01:10Z,42.805,6.029,13.2991,4.60000,2470.446,2021-7-26T09:02:27Z
2021-07-26T07:04:13Z,42.805,6.029,13.2989,4.60000,2470.483,2021-7-26T09:05:30Z
2021-07-26T07:07:16Z,42.805,6.029,13.2993,4.60003,2470.507,2021-7-26T09:08:33Z
2021-07-26T07:10:19Z,42.805,6.029,13.2990,4.60000,2470.497,2021-7-26T09:11:36Z
2021-07-26T07:13:22Z,42.805,6.029,13.2990,4.60001,2470.52,2021-7-26T09:14:39Z
2021-07-26T07:16:25Z,42.805,6.029,13.2991,4.60000,2470.497,2021-7-26T09:17:42Z
2021-07-26T07:19:29Z,42.805,6.029,13.2995,4.60000,2470.497,2021-7-26T09:20:45Z
2021-07-26T07:22:32Z,42.805,6.029,13.2991,4.59999,2470.46,2021-7-26T09:23:49Z
2021-07-26T07:25:35Z,42.805,6.029,13.2989,4.60000,2470.497,2021-7-26T09:26:52Z
2021-07-26T07:28:38Z,42.805,6.029,13.2990,4.59999,2470.497,2021-7-26T09:29:55Z
2021-07-26T07:31:41Z,42.805,6.029,13.2994,4.59999,2470.483,2021-7-26T09:32:58Z
2021-07-26T07:34:44Z,42.805,6.029,13.2992,4.59999,2470.483,2021-7-26T09:36:01Z
2021-07-26T07:37:47Z,42.805,6.029,13.2991,4.60000,2470.497,2021-7-26T09:39:04Z
2021-07-26T07:40:50Z,42.805,6.029,13.2992,4.59999,2470.483,2021-7-26T09:42:07Z
2021-07-26T07:43:54Z,42.805,6.029,13.2990,4.59999,2470.497,2021-7-26T09:45:10Z
2021-07-26T07:46:57Z,42.805,6.029,13.2991,4.59999,2470.497,2021-7-26T09:48:14Z
2021-07-26T07:50:00Z,42.805,6.029,13.2993,4.60001,2470.474,2021-7-26T09:51:17Z
2021-07-26T07:53:03Z,42.805,6.029,13.2990,4.59999,2470.437,2021-7-26T09:54:20Z
2021-07-26T07:56:06Z,42.805,6.029,13.2990,4.59999,2470.483,2021-7-26T09:57:23Z
2021-07-26T07:59:09Z,42.805,6.029,13.2994,4.59999,2470.52,2021-7-26T10:00:26Z
2021-07-26T08:02:12Z,42.805,6.029,13.2990,4.59999,2470.52,2021-7-26T10:03:29Z
2021-07-26T08:05:15Z,42.805,6.029,13.2992,4.60000,2470.544,2021-7-26T10:06:32Z
2021-07-26T08:08:19Z,42.805,6.029,13.2989,4.59999,2470.507,2021-7-26T10:09:35Z
2021-07-26T08:11:22Z,42.805,6.029,13.2991,4.59999,2470.507,2021-7-26T10:12:39Z
2021-07-26T08:14:25Z,42.805,6.029,13.2991,4.60002,2470.507,2021-7-26T10:15:42Z
2021-07-26T08:17:28Z,42.805,6.029,13.2991,4.60001,2470.497,2021-7-26T10:18:45Z
2021-07-26T08:20:31Z,42.805,6.029,13.2995,4.60000,2470.497,2021-7-26T10:21:48Z
2021-07-26T08:23:34Z,42.805,6.029,13.2994,4.59999,2470.497,2021-7-26T10:24:51Z
2021-07-26T08:26:37Z,42.805,6.029,13.2990,4.59999,2470.507,2021-7-26T10:27:54Z
2021-07-26T08:29:40Z,42.805,6.029,13.2990,4.60000,2470.497,2021-7-26T10:30:57Z
2021-07-26T08:32:44Z,42.805,6.029,13.2991,4.60001,2470.53,2021-7-26T10:34:00Z
2021-07-26T08:35:47Z,42.805,6.029,13.2993,4.60001,2470.483,2021-7-26T10:37:04Z
2021-07-26T08:38:50Z,42.805,6.029,13.2990,4.60000,2470.46,2021-7-26T10:40:07Z
2021-07-26T08:41:53Z,42.805,6.029,13.2993,4.60001,2470.483,2021-7-26T10:43:10Z
2021-07-26T08:44:56Z,42.805,6.029,13.2988,4.60000,2470.53,2021-7-26T10:46:13Z
2021-07-26T08:47:59Z,42.805,6.029,13.2993,4.60001,2470.497,2021-7-26T10:49:16Z
2021-07-26T08:51:02Z,42.805,6.029,13.2992,4.60000,2470.45,2021-7-26T10:52:19Z
2021-07-26T08:54:05Z,42.805,6.029,13.2990,4.60002,2470.483,2021-7-26T10:55:22Z
2021-07-26T08:57:09Z,42.805,6.029,13.2991,4.60001,2470.483,2021-7-26T10:58:25Z
2021-07-26T09:00:12Z,42.805,6.029,13.2990,4.60000,2470.507,2021-7-26T11:01:29Z
2021-07-26T09:03:15Z,42.805,6.029,13.2991,4.60000,2470.507,2021-7-26T11:04:32Z
2021-07-26T09:06:18Z,42.805,6.029,13.2991,4.60000,2470.46,2021-7-26T11:07:35Z
2021-07-26T09:09:21Z,42.805,6.029,13.2990,4.60001,2470.497,2021-7-26T11:10:38Z
2021-07-26T09:12:24Z,42.805,6.029,13.2991,4.60001,2470.483,2021-7-26T11:13:41Z
2021-07-26T09:15:27Z,42.805,6.029,13.2993,4.59999,2470.483,2021-7-26T11:16:44Z
2021-07-26T09:18:30Z,42.805,6.029,13.2990,4.60000,2470.483,2021-7-26T11:19:47Z
2021-07-26T09:21:34Z,42.805,6.029,13.2994,4.60001,2470.497,2021-7-26T11:22:51Z
2021-07-26T09:24:37Z,42.805,6.029,13.2993,4.60000,2470.493,2021-7-26T11:25:54Z
2021-07-26T09:27:40Z,42.805,6.029,13.2993,4.60001,2470.437,2021-7-26T11:28:57Z
2021-07-26T09:30:43Z,42.805,6.029,13.2993,4.60000,2470.474,2021-7-26T11:32:00Z
2021-07-26T09:33:46Z,42.805,6.029,13.2991,4.60000,2470.483,2021-7-26T11:35:03Z
2021-07-26T09:36:49Z,42.805,6.029,13.2990,4.60000,2470.483,2021-7-26T11:38:06Z
2021-07-26T09:39:52Z,42.805,6.029,13.2995,4.60003,2470.46,2021-7-26T11:41:09Z
2021-07-26T09:42:55Z,42.805,6.029,13.2991,4.60001,2470.437,2021-7-26T11:44:12Z
2021-07-26T09:45:59Z,42.805,6.029,13.2995,4.60001,2470.497,2021-7-26T11:47:16Z
2021-07-26T09:49:02Z,42.805,6.029,13.2990,4.60001,2470.46,2021-7-26T11:50:19Z
2021-07-26T09:52:05Z,42.805,6.029,13.2993,4.60001,2470.46,2021-7-26T11:53:22Z
2021-07-26T09:55:08Z,42.805,6.029,13.2991,4.60001,2470.46,2021-7-26T11:56:25Z
2021-07-26T09:58:11Z,42.805,6.029,13.2993,4.60001,2470.437,2021-7-26T11:59:28Z
2021-07-26T10:01:14Z,42.805,6.029,13.2991,4.60003,2470.437,2021-7-26T12:02:31Z
2021-07-26T10:04:17Z,42.805,6.029,13.2994,4.60002,2470.474,2021-7-26T12:05:34Z
2021-07-26T10:07:21Z,42.805,6.029,13.2994,4.60004,2470.45,2021-7-26T12:08:37Z
2021-07-26T10:10:24Z,42.805,6.029,13.2994,4.60003,2470.437,2021-7-26T12:11:41Z
2021-07-26T10:13:27Z,42.805,6.029,13.2993,4.60003,2470.46,2021-7-26T12:14:44Z
2021-07-26T10:16:30Z,42.805,6.029,13.2991,4.60002,2470.497,2021-7-26T12:17:47Z
2021-07-26T10:19:33Z,42.805,6.029,13.2993,4.60003,2470.427,2021-7-26T12:20:50Z
2021-07-26T10:22:36Z,42.805,6.029,13.2990,4.60002,2470.413,2021-7-26T12:23:53Z
2021-07-26T10:25:39Z,42.805,6.029,13.2991,4.60002,2470.437,2021-7-26T12:26:56Z
2021-07-26T10:28:42Z,42.805,6.029,13.2994,4.60001,2470.437,2021-7-26T12:29:59Z
2021-07-26T10:31:46Z,42.805,6.029,13.2989,4.60002,2470.45,2021-7-26T12:33:02Z
2021-07-26T10:34:49Z,42.805,6.029,13.2993,4.60001,2470.437,2021-7-26T12:36:06Z
2021-07-26T10:37:52Z,42.805,6.029,13.2991,4.60003,2470.423,2021-7-26T12:39:09Z
2021-07-26T10:40:55Z,42.805,6.029,13.2996,4.60001,2470.45,2021-7-26T12:42:12Z
2021-07-26T10:43:58Z,42.805,6.029,13.2993,4.60007,2470.437,2021-7-26T12:45:15Z
2021-07-26T10:47:01Z,42.805,6.029,13.2992,4.60001,2470.437,2021-7-26T12:48:18Z
2021-07-26T10:50:04Z,42.805,6.029,13.2991,4.60001,2470.413,2021-7-26T12:51:21Z
2021-07-26T10:53:07Z,42.805,6.029,13.2988,4.60001,2470.413,2021-7-26T12:54:24Z
2021-07-26T10:56:11Z,42.805,6.029,13.2994,4.60001,2470.427,2021-7-26T12:57:27Z
2021-07-26T10:59:14Z,42.805,6.029,13.2992,4.60004,2470.413,2021-7-26T13:00:31Z
2021-07-26T11:02:17Z,42.805,6.029,13.2993,4.60003,2470.45,2021-7-26T13:03:34Z
2021-07-26T11:05:20Z,42.805,6.029,13.2993,4.60002,2470.437,2021-7-26T13:06:37Z
2021-07-26T11:08:23Z,42.805,6.029,13.2991,4.60002,2470.413,2021-7-26T13:09:40Z
2021-07-26T11:11:26Z,42.805,6.029,13.2993,4.60002,2470.413,2021-7-26T13:12:43Z
2021-07-26T11:14:29Z,42.805,6.029,13.2991,4.60001,2470.39,2021-7-26T13:15:46Z
2021-07-26T11:17:32Z,42.805,6.029,13.2991,4.60002,2470.413,2021-7-26T13:18:49Z
2021-07-26T11:20:36Z,42.805,6.029,13.2993,4.60002,2470.404,2021-7-26T13:21:52Z
2021-07-26T11:23:39Z,42.805,6.029,13.2994,4.60001,2470.46,2021-7-26T13:24:56Z
2021-07-26T11:26:42Z,42.805,6.029,13.2993,4.60001,2470.413,2021-7-26T13:27:59Z
2021-07-26T11:29:45Z,42.805,6.029,13.2996,4.60003,2470.427,2021-7-26T13:31:02Z
2021-07-26T11:32:48Z,42.805,6.029,13.2993,4.60003,2470.413,2021-7-26T13:34:05Z
2021-07-26T11:35:51Z,42.805,6.029,13.2994,4.60003,2470.39,2021-7-26T13:37:08Z
2021-07-26T11:38:54Z,42.805,6.029,13.2993,4.60002,2470.427,2021-7-26T13:40:11Z
2021-07-26T11:41:57Z,42.805,6.029,13.2996,4.60003,2470.437,2021-7-26T13:43:14Z
2021-07-26T11:45:01Z,42.805,6.029,13.2994,4.60002,2470.39,2021-7-26T13:46:17Z
2021-07-26T11:48:04Z,42.805,6.029,13.2990,4.60002,2470.39,2021-7-26T13:49:21Z
2021-07-26T11:51:07Z,42.805,6.029,13.2996,4.60002,2470.413,2021-7-26T13:52:24Z
2021-07-26T11:54:10Z,42.805,6.029,13.2994,4.60002,2470.427,2021-7-26T13:55:27Z
2021-07-26T11:57:13Z,42.805,6.029,13.2992,4.60001,2470.39,2021-7-26T13:58:30Z
2021-07-26T12:00:16Z,42.805,6.029,13.2996,4.60001,2470.413,2021-7-26T14:01:33Z
2021-07-26T12:03:19Z,42.805,6.029,13.2993,4.60003,2470.39,2021-7-26T14:04:36Z
2021-07-26T12:06:22Z,42.805,6.029,13.2991,4.60001,2470.39,2021-7-26T14:07:39Z
2021-07-26T12:09:26Z,42.805,6.029,13.2993,4.60001,2470.366,2021-7-26T14:10:42Z
2021-07-26T12:12:29Z,42.805,6.029,13.2994,4.60003,2470.39,2021-7-26T14:13:46Z
2021-07-26T12:15:32Z,42.805,6.029,13.2995,4.60002,2470.366,2021-7-26T14:16:49Z
2021-07-26T12:18:35Z,42.805,6.029,13.2996,4.60003,2470.404,2021-7-26T14:19:52Z
2021-07-26T12:21:38Z,42.805,6.029,13.2992,4.60001,2470.38,2021-7-26T14:22:55Z
2021-07-26T12:24:41Z,42.805,6.029,13.2997,4.60002,2470.39,2021-7-26T14:25:58Z
2021-07-26T12:27:44Z,42.805,6.029,13.2993,4.60003,2470.366,2021-7-26T14:29:01Z
2021-07-26T12:30:47Z,42.805,6.029,13.2996,4.60003,2470.366,2021-7-26T14:32:04Z
2021-07-26T12:33:51Z,42.805,6.029,13.2991,4.60004,2470.39,2021-7-26T14:35:07Z
2021-07-26T12:36:54Z,42.805,6.029,13.2993,4.60003,2470.366,2021-7-26T14:38:11Z
2021-07-26T12:39:57Z,42.805,6.029,13.2995,4.60003,2470.404,2021-7-26T14:41:14Z
2021-07-26T12:43:00Z,42.805,6.029,13.2996,4.60007,2470.366,2021-7-26T14:44:17Z
2021-07-26T12:46:03Z,42.805,6.029,13.2997,4.60004,2470.353,2021-7-26T14:47:20Z
2021-07-26T12:49:06Z,42.805,6.029,13.2992,4.60002,2470.343,2021-7-26T14:50:23Z
2021-07-26T12:52:09Z,42.805,6.029,13.2993,4.60003,2470.39,2021-7-26T14:53:26Z
2021-07-26T12:55:13Z,42.805,6.029,13.2991,4.60003,2470.39,2021-7-26T14:56:29Z
2021-07-26T12:58:16Z,42.805,6.029,13.2994,4.60003,2470.366,2021-7-26T14:59:33Z
2021-07-26T13:01:19Z,42.805,6.029,13.2995,4.60003,2470.38,2021-7-26T15:02:36Z
2021-07-26T13:04:22Z,42.805,6.029,13.2996,4.60005,2470.32,2021-7-26T15:05:39Z
2021-07-26T13:07:25Z,42.805,6.029,13.2991,4.60003,2470.343,2021-7-26T15:08:42Z
2021-07-26T13:10:28Z,42.805,6.029,13.2994,4.60003,2470.32,2021-7-26T15:11:45Z
2021-07-26T13:13:31Z,42.805,6.029,13.2991,4.60003,2470.32,2021-7-26T15:14:48Z
2021-07-26T13:16:34Z,42.805,6.029,13.2992,4.60004,2470.357,2021-7-26T15:17:51Z
2021-07-26T13:19:38Z,42.805,6.029,13.2998,4.60004,2470.32,2021-7-26T15:20:54Z
2021-07-26T13:22:41Z,42.805,6.029,13.2995,4.60004,2470.38,2021-7-26T15:23:58Z
2021-07-26T13:25:44Z,42.805,6.029,13.2993,4.60004,2470.32,2021-7-26T15:27:01Z
2021-07-26T13:28:47Z,42.805,6.029,13.2993,4.60003,2470.343,2021-7-26T15:30:04Z
2021-07-26T13:31:50Z,42.805,6.029,13.2996,4.60003,2470.366,2021-7-26T15:33:07Z
2021-07-26T13:34:53Z,42.805,6.029,13.2991,4.60003,2470.32,2021-7-26T15:36:10Z
2021-07-26T13:37:56Z,42.805,6.029,13.2994,4.60003,2470.343,2021-7-26T15:39:13Z
2021-07-26T13:40:59Z,42.805,6.029,13.2996,4.60004,2470.32,2021-7-26T15:42:16Z
2021-07-26T13:44:03Z,42.805,6.029,13.2997,4.60004,2470.32,2021-7-26T15:45:19Z
2021-07-26T13:47:06Z,42.805,6.029,13.2997,4.60005,2470.32,2021-7-26T15:48:23Z
2021-07-26T13:50:09Z,42.805,6.029,13.2998,4.60005,2470.343,2021-7-26T15:51:26Z
2021-07-26T13:53:12Z,42.805,6.029,13.2995,4.60005,2470.38,2021-7-26T15:54:29Z
2021-07-26T13:56:15Z,42.805,6.029,13.2993,4.60006,2470.343,2021-7-26T15:57:32Z
2021-07-26T13:59:18Z,42.805,6.029,13.2996,4.60007,2470.334,2021-7-26T16:00:35Z
2021-07-26T14:02:21Z,42.805,6.029,13.2998,4.60009,2470.366,2021-7-26T16:03:38Z
2021-07-26T14:05:24Z,42.805,6.029,13.2998,4.60005,2470.334,2021-7-26T16:06:41Z
2021-07-26T14:08:28Z,42.805,6.029,13.2997,4.60009,2470.334,2021-7-26T16:09:44Z
2021-07-26T14:11:31Z,42.805,6.029,13.2998,4.60007,2470.343,2021-7-26T16:12:48Z
2021-07-26T14:14:34Z,42.805,6.029,13.2998,4.60006,2470.33,2021-7-26T16:15:51Z
2021-07-26T14:17:37Z,42.805,6.029,13.2993,4.60006,2470.32,2021-7-26T16:18:54Z
2021-07-26T14:20:40Z,42.805,6.029,13.2997,4.60006,2470.343,2021-7-26T16:21:57Z
2021-07-26T14:23:43Z,42.805,6.029,13.2997,4.60006,2470.334,2021-7-26T16:25:00Z
2021-07-26T14:26:46Z,42.805,6.029,13.2996,4.60007,2470.31,2021-7-26T16:28:03Z
2021-07-26T14:29:50Z,42.805,6.029,13.2996,4.60014,2470.334,2021-7-26T16:31:06Z
2021-07-26T14:32:53Z,42.805,6.029,13.2996,4.60009,2470.357,2021-7-26T16:34:10Z
2021-07-26T14:35:56Z,42.805,6.029,13.2996,4.60009,2470.334,2021-7-26T16:37:13Z
2021-07-26T14:38:59Z,42.805,6.029,13.2998,4.60005,2470.334,2021-7-26T16:40:16Z
2021-07-26T14:42:02Z,42.805,6.029,13.2996,4.60006,2470.32,2021-7-26T16:43:19Z
2021-07-26T14:45:05Z,42.805,6.029,13.2995,4.60006,2470.357,2021-7-26T16:46:22Z
2021-07-26T14:48:08Z,42.805,6.029,13.2998,4.60006,2470.366,2021-7-26T16:49:25Z
2021-07-26T14:51:11Z,42.805,6.029,13.2996,4.60007,2470.357,2021-7-26T16:52:28Z
2021-07-26T14:54:15Z,42.805,6.029,13.2996,4.60007,2470.297,2021-7-26T16:55:31Z
2021-07-26T14:57:18Z,42.805,6.029,13.2998,4.60006,2470.297,2021-7-26T16:58:35Z
2021-07-26T15:00:21Z,42.805,6.029,13.2996,4.60008,2470.32,2021-7-26T17:01:38Z
2021-07-26T15:03:24Z,42.805,6.029,13.2996,4.60006,2470.357,2021-7-26T17:04:41Z
2021-07-26T15:06:27Z,42.805,6.029,13.2996,4.60009,2470.343,2021-7-26T17:07:44Z
2021-07-26T15:09:30Z,42.805,6.029,13.2997,4.60007,2470.32,2021-7-26T17:10:47Z
2021-07-26T15:12:33Z,42.805,6.029,13.3000,4.60006,2470.32,2021-7-26T17:13:50Z
2021-07-26T15:15:36Z,42.805,6.029,13.2997,4.60006,2470.297,2021-7-26T17:16:53Z